Weather History for KFLG - November, 2011

Change the Weather History Date:

Sunday, November 13, 2011

  Actual Average Record
Temperature  
Mean Temperature 38 °F 38 °F  
Max Temperature 44 °F 51 °F 72 °F (1967)
Min Temperature 31 °F 24 °F -3 °F (2000)
Degree Days  
Heating Degree Days 27 27  
Month to date heating degree days 410 329  
Since 1 July heating degree days 1151 1212  
Cooling Degree Days 0 0  
Month to date cooling degree days 0 0  
Year to date cooling degree days 170 117  
Moisture  
Dew Point 37 °F    
Average Humidity 88    
Maximum Humidity 100    
Minimum Humidity 76    
Precipitation  
Precipitation 0.15 in 0.05 in 0.75 in (1910)
Month to date precipitation 1.67 0.73  
Year to date precipitation 18.42 18.96  
Snow  
Snow 0.00 in 0.30 in 5.00 in (1961)
Month to date snowfall 12.5 3.1  
Since 1 July snowfall 12.5 4.6  
Snow Depth 0.00 in    
Sea Level Pressure  
Sea Level Pressure 29.93 in    
Wind  
Wind Speed 8 mph (WSW)    
Max Wind Speed 18 mph    
Max Gust Speed 28 mph    
Visibility 9 miles    
Events Rain    
T = Trace of Precipitation, MM = Missing Value Source: NWS Daily Summary

Daily Weather History Graph

Daily Weather History Graph

Search for Another Location

Airport or City:

Trip Planner

Search our weather history database for the weather conditions in past years. The results will help you decide how hot, cold, wet, or windy it might be!

Date:

Astronomy

Nov. 13, 2011 Rise Set
Actual Time 6:59 AM MST 5:22 PM MST
Civil Twilight 6:32 AM MST 5:49 PM MST
Nautical Twilight 6:01 AM MST 6:19 PM MST
Astronomical Twilight 5:31 AM MST 6:49 PM MST
Moon 7:38 PM MST (11/13) 9:30 AM MST (11/13)
Length of Visible Light 11h 16m
Length of Day
10h 22m
Waning Gibbous, 92% of the Moon is Illuminated
Nov 13
Waning Gibbous
Nov 18
Last Quarter
Nov 24
New
Dec 2
First Quarter
Dec 10
Full

Hourly Weather History & Observations

Time (MST) Temp. Windchill Dew Point Humidity Pressure Visibility Wind Dir Wind Speed Gust Speed Precip Events Conditions
12:05 AM 39.2 °F 34.2 °F 32.0 °F 75% 30.03 in 10.0 mi WSW 6.9 mph - N/A   Overcast
12:57 AM 39.9 °F 33.4 °F 32.0 °F 73% 29.88 in 10.0 mi SW 10.4 mph - N/A   Overcast
1:57 AM 37.0 °F 33.3 °F 35.1 °F 93% 29.87 in 8.0 mi West 4.6 mph - 0.00 in Rain Light Rain
2:13 AM 37.4 °F 32.1 °F 35.6 °F 93% 30.01 in 10.0 mi WSW 6.9 mph - 0.00 in   Overcast
2:57 AM 37.0 °F 31.6 °F 35.1 °F 93% 29.85 in 7.0 mi WSW 6.9 mph - 0.01 in Rain Light Rain
3:11 AM 37.4 °F 33.8 °F 35.6 °F 93% 29.98 in 7.0 mi West 4.6 mph - 0.00 in   Overcast
3:57 AM 36.0 °F 33.3 °F 35.1 °F 97% 29.84 in 6.0 mi Variable 3.5 mph - 0.02 in Rain Light Rain
4:57 AM 36.0 °F 31.1 °F 36.0 °F 100% 29.86 in 6.0 mi West 5.8 mph - 0.01 in Rain Light Rain
5:57 AM 37.9 °F 33.5 °F 37.9 °F 100% 29.85 in 6.0 mi WSW 5.8 mph - 0.01 in Rain Light Rain
6:57 AM 39.0 °F 31.8 °F 37.9 °F 96% 29.84 in 10.0 mi SW 11.5 mph - 0.04 in Rain Light Rain
7:05 AM 39.2 °F 32.0 °F 37.4 °F 93% 29.96 in 10.0 mi SW 11.5 mph - 0.00 in Rain Light Rain
7:50 AM 39.2 °F 31.6 °F 37.4 °F 93% 29.97 in 10.0 mi WSW 12.7 mph 19.6 mph 0.00 in Rain Light Rain
7:57 AM 39.9 °F 32.1 °F 37.9 °F 93% 29.86 in 10.0 mi SW 13.8 mph - 0.00 in Rain Light Rain
8:31 AM 39.2 °F 33.6 °F 39.2 °F 100% 29.98 in 10.0 mi WSW 8.1 mph - 0.01 in   Overcast
8:54 AM 39.2 °F 32.5 °F 39.2 °F 100% 29.98 in 5.0 mi WSW 10.4 mph - 0.01 in Rain Light Rain
8:57 AM 39.9 °F 33.4 °F 39.0 °F 97% 29.87 in 5.0 mi WSW 10.4 mph - 0.01 in Rain Light Rain
9:57 AM 41.0 °F 34.3 °F 39.0 °F 93% 29.88 in 10.0 mi WSW 11.5 mph 19.6 mph 0.00 in   Overcast
10:08 AM 42.8 °F 35.1 °F 39.2 °F 87% 29.99 in 10.0 mi WSW 16.1 mph 20.7 mph N/A   Overcast
10:57 AM 41.0 °F 33.9 °F 39.9 °F 96% 29.88 in 4.0 mi WSW 12.7 mph 19.6 mph 0.01 in Rain Light Rain
11:57 AM 41.0 °F 33.9 °F 39.9 °F 96% 29.87 in 10.0 mi WSW 12.7 mph - 0.01 in   Overcast
12:57 PM 42.1 °F 37.1 °F 39.0 °F 89% 29.86 in 7.0 mi WSW 8.1 mph 17.3 mph 0.00 in Rain Light Rain
1:57 PM 41.0 °F 35.2 °F 39.9 °F 96% 29.87 in 6.0 mi WSW 9.2 mph - 0.00 in   Overcast
2:04 PM 41.0 °F 35.2 °F 39.2 °F 93% 29.98 in 4.0 mi WSW 9.2 mph - 0.00 in Rain Light Rain
2:57 PM 42.1 °F 36.1 °F 39.9 °F 92% 29.85 in 10.0 mi SW 10.4 mph - 0.01 in   Overcast
3:57 PM 39.9 °F 34.5 °F 37.9 °F 93% 29.88 in 5.0 mi WSW 8.1 mph - 0.02 in Rain Light Rain
4:08 PM 39.2 °F 34.2 °F 37.4 °F 93% 29.98 in 10.0 mi WSW 6.9 mph - 0.00 in Rain Light Rain
4:14 PM 39.2 °F 33.6 °F 37.4 °F 93% 29.98 in 10.0 mi WSW 8.1 mph - 0.00 in Rain Light Rain
4:32 PM 41.0 °F 35.8 °F 39.2 °F 93% 29.98 in 10.0 mi WSW 8.1 mph - 0.00 in   Overcast
4:57 PM 41.0 °F 35.8 °F 39.0 °F 93% 29.88 in 10.0 mi WSW 8.1 mph - 0.00 in   Overcast
5:35 PM 39.2 °F 32.5 °F 37.4 °F 93% 29.99 in 10.0 mi WSW 10.4 mph - N/A   Overcast
5:57 PM 39.0 °F 32.8 °F 37.0 °F 93% 29.89 in 10.0 mi SW 9.2 mph - N/A   Partly Cloudy
6:57 PM 37.9 °F 32.7 °F 36.0 °F 93% 29.89 in 10.0 mi West 6.9 mph - N/A   Clear
7:47 PM 37.4 °F 31.4 °F 35.6 °F 93% 30.01 in 10.0 mi WSW 8.1 mph - N/A   Mostly Cloudy
7:57 PM 37.9 °F 31.5 °F 35.1 °F 89% 29.91 in 10.0 mi WSW 9.2 mph - N/A   Mostly Cloudy
8:57 PM 37.0 °F - 35.1 °F 93% 29.93 in 10.0 mi Calm Calm - N/A   Mostly Cloudy
9:18 PM 37.4 °F 33.8 °F 33.8 °F 87% 30.04 in 10.0 mi WSW 4.6 mph - N/A   Scattered Clouds
9:57 PM 35.1 °F - 33.1 °F 92% 29.95 in 10.0 mi Calm Calm - N/A   Clear
10:52 PM 32.0 °F - 30.2 °F 93% 30.03 in 10.0 mi Calm Calm - N/A   Scattered Clouds
10:57 PM 33.1 °F - 32.0 °F 96% 29.95 in 10.0 mi Calm Calm - N/A   Mostly Cloudy
11:57 PM 34.0 °F 31.0 °F 34.0 °F 100% 29.93 in 10.0 mi SSW 3.5 mph - N/A   Overcast